[[{"header":{"parameterUnit":"m.s-1","parameterCategory":1,"la1":30.2992,"la2":30.254,"lo1":-89.0895,"lo2":-89.0443,"dy":0.0025,"dx":0.0025,"nx":19,"ny":19,"refTime":"2026-04-15T03:00:00:Z","depth":0,"parameterNumber":2,"parameterNumberName":"U-component_of_WINDS"},"data":[0,0,0,-2.453,-2.4532,-2.461,-2.461,-2.4715,-2.4716,0,0,0,0,0,0,0,0,0,0,0,-2.4509,-2.4509,-2.453,-2.4532,-2.461,-2.461,-2.4714,-2.4716,0,0,0,0,0,0,0,0,0,0,0,-2.4508,-2.4509,-2.451,-2.4532,-2.461,-2.461,-2.4714,-2.4654,0,0,0,0,0,0,0,0,0,0,-2.4577,-2.4559,-2.4509,-2.451,-2.4532,-2.461,-2.461,-2.4651,-2.4658,-2.4681,0,-2.4702,0,-2.471,-2.4723,-2.4723,0,0,0,-2.453,-2.4553,-2.4573,-2.451,-2.4533,-2.4609,-2.4574,-2.4655,-2.4662,-2.469,-2.4703,-2.4707,-2.4712,-2.4724,-2.4724,-2.4864,-2.4864,0,0,-2.4526,-2.4524,-2.4568,-2.4578,-2.4565,-2.4572,-2.4577,-2.4659,-2.4673,-2.4703,-2.4709,-2.4714,-2.4724,-2.4725,-2.4863,-2.4864,0,0,0,-2.4515,-2.4521,-2.4538,-2.4574,-2.4587,-2.4574,-2.458,-2.467,-2.4676,-2.471,-2.4715,-2.4725,-2.4726,-2.4862,-2.4863,-2.4896,0,0,0,-2.4512,-2.4514,-2.4536,-2.4536,-2.4586,-2.4629,-2.4588,-2.467,-2.4679,-2.4715,-2.4725,-2.4727,-2.4861,-2.4863,-2.4894,-2.4912,0,0,0,-2.4503,-2.4513,-2.4525,-2.4535,-2.4569,-2.4628,-2.4639,-2.4672,-2.4682,-2.4723,-2.4728,-2.4861,-2.4862,-2.4891,-2.4908,-2.4948,0,0,0,-2.4492,-2.4552,-2.4525,-2.4594,-2.4568,-2.4648,-2.4638,-2.4698,-2.4737,-2.4725,-2.4861,-2.4863,-2.489,-2.4906,-2.4946,-2.4982,-2.4996,0,0,-2.4567,-2.4561,-2.4602,-2.458,-2.4664,-2.4636,-2.4726,-2.4764,-2.477,-2.4832,-2.4836,-2.4894,-2.4908,-2.4948,-2.508,-2.5092,0,0,0,-2.4625,-2.4654,-2.4677,-2.4714,-2.4746,-2.4774,-2.4799,-2.4814,-2.4867,-2.4801,-2.492,-2.4928,-2.4952,-2.4969,-2.4979,-2.5,-2.4871,-2.4871,-2.4871,-2.4725,-2.4731,-2.48,-2.4815,-2.4852,-2.4878,-2.4909,-2.4933,-2.4927,-2.4956,-2.4974,-2.5053,-2.5073,-2.5081,-2.5102,-2.4993,-2.4994,-2.4994,-2.4994,-2.4835,-2.4877,-2.487,-2.4934,-2.494,-2.4994,-2.5023,-2.5018,-2.507,-2.5039,-2.5061,-2.5027,-2.5093,-2.5113,-2.4996,-2.4996,-2.4996,-2.4995,-2.4995,-2.4901,-2.4922,-2.494,-2.4996,-2.5039,-2.5054,-2.5104,-2.5108,-2.5112,-2.5133,-2.5154,-2.5153,-2.5153,-2.5143,-2.5143,-2.5143,-2.5144,-2.5144,-2.5144,-2.4962,-2.4981,-2.5023,-2.5063,-2.5088,-2.5123,-2.5152,-2.5178,-2.5207,-2.5206,-2.5207,-2.5199,-2.5099,-2.5074,-2.5148,-2.5147,-2.5147,-2.5147,-2.5146,-2.507,-2.5047,-2.5111,-2.5137,-2.5186,-2.5229,-2.5235,-2.5287,-2.5309,-2.5335,-2.5324,-2.5249,-2.5243,-2.5236,-2.5215,-2.5322,-2.5322,-2.5322,-2.5322,-2.5126,-2.5124,-2.5192,-2.5233,-2.5275,-2.5287,-2.5362,-2.5386,-2.5408,-2.5422,-2.5408,-2.5381,-2.5373,-2.5372,-2.5361,-2.5342,-2.5478,-2.5479,-2.5479,-2.5193,-2.5195,-2.5257,-2.5278,-2.5317,-2.5351,-2.5422,-2.5471,-2.5491,-2.5485,-2.5434,-2.5427,-2.5384,-2.5369,-2.536,-2.5344,-2.5308,0,0]},{"header":{"parameterUnit":"m.s-1","parameterCategory":1,"la1":30.2992,"la2":30.254,"lo1":-89.0895,"lo2":-89.0443,"dy":0.0025,"dx":0.0025,"nx":19,"ny":19,"refTime":"2026-04-15T03:00:00:Z","depth":0,"parameterNumber":3,"parameterNumberName":"V-component_of_WINDS"},"data":[0,0,0,3.8669,3.8668,3.8637,3.8637,3.8613,3.8613,0,0,0,0,0,0,0,0,0,0,0,3.8689,3.8689,3.8669,3.8668,3.8637,3.8637,3.8613,3.8613,0,0,0,0,0,0,0,0,0,0,0,3.8689,3.8689,3.8689,3.8668,3.8637,3.8637,3.8613,3.863,0,0,0,0,0,0,0,0,0,0,3.8658,3.8688,3.8689,3.8689,3.8668,3.8637,3.8636,3.8631,3.8629,3.8634,0,3.8643,0,3.8628,3.8612,3.8612,0,0,0,3.866,3.8689,3.8671,3.8689,3.8668,3.8637,3.8648,3.863,3.8628,3.8632,3.8642,3.8641,3.8627,3.8612,3.8612,3.8673,3.8674,0,0,3.8661,3.8689,3.8672,3.867,3.8678,3.865,3.8648,3.8628,3.8641,3.8642,3.864,3.8627,3.8612,3.8612,3.8672,3.8673,0,0,0,3.8672,3.869,3.8672,3.8672,3.8665,3.8649,3.8647,3.8641,3.8633,3.864,3.8627,3.8612,3.8612,3.8672,3.8673,3.8733,0,0,0,3.8673,3.8697,3.8673,3.869,3.8666,3.8653,3.8661,3.8635,3.8632,3.8627,3.8612,3.8612,3.8671,3.8672,3.873,3.8757,0,0,0,3.8687,3.8698,3.8698,3.8692,3.8679,3.8653,3.8643,3.8633,3.8624,3.8612,3.8612,3.867,3.8672,3.8727,3.8752,3.878,0,0,0,3.871,3.8751,3.8699,3.874,3.868,3.8691,3.8643,3.865,3.8647,3.8612,3.8671,3.8673,3.8726,3.8749,3.8778,3.8809,3.8825,0,0,3.8777,3.8761,3.8782,3.8735,3.8763,3.8694,3.873,3.8701,3.8674,3.8675,3.8676,3.8731,3.8751,3.878,3.8907,3.892,0,0,0,3.8813,3.8829,3.8831,3.883,3.881,3.8794,3.8757,3.8746,3.8745,3.8681,3.8749,3.876,3.8776,3.8789,3.88,3.8811,3.8681,3.868,3.868,3.8947,3.8911,3.8945,3.8906,3.8906,3.8868,3.8864,3.8843,3.8806,3.8823,3.8823,3.8904,3.8922,3.893,3.8942,3.8837,3.8838,3.8838,3.8838,3.9041,3.9058,3.901,3.9025,3.8988,3.9,3.8965,3.8939,3.8944,3.8902,3.8914,3.8869,3.8945,3.8953,3.8842,3.8842,3.8841,3.8841,3.884,3.9123,3.9125,3.9113,3.9108,3.9109,3.9068,3.9076,3.9041,3.9008,3.902,3.9015,3.9014,3.9007,3.9021,3.9021,3.9021,3.9021,3.9022,3.9022,3.9213,3.9197,3.9208,3.9191,3.9186,3.9176,3.9139,3.9132,3.9117,3.909,3.909,3.9052,3.896,3.8936,3.9026,3.9025,3.9025,3.9024,3.9024,3.9319,3.929,3.9308,3.9303,3.928,3.9283,3.924,3.923,3.922,3.9225,3.9185,3.9123,3.9102,3.9093,3.9074,3.9193,3.9193,3.9193,3.9193,3.9388,3.9375,3.9385,3.938,3.9371,3.9334,3.9354,3.9326,3.9292,3.9283,3.9261,3.9233,3.9225,3.9209,3.9198,3.9179,3.9322,3.9322,3.9322,3.9451,3.9436,3.946,3.9427,3.9407,3.9391,3.9408,3.9403,3.9358,3.9327,3.9275,3.927,3.9224,3.9211,3.9177,3.9159,3.9124,0,0]}]]